Volver al catálogo

STARLINK-37286

ActivoComunicacionesVLEO
NORAD 68512·PAYLOAD·🇺🇸 United States

Lanzado Mar 30, 2026 desde Cape Canaveral Space Force Station

Loading…

Próximos Pases (próximas 24 horas)

TLE

ActualizadoSource: CelesTrak SupGP

Época: Sep 14, 2026, 23:04 UTC

1 68512C 26068E   26257.96159722  .00033949  00000+0  10034-2 0  2571
2 68512  53.1596 319.4297 0001142  89.6025 220.3946 15.34361695    16

Sigue STARLINK-37286 en tiempo real con AllMySat

Download on the App Store